Impacts METAR Board INFO
IDs:

KPHX - Phoenix/Sky Harbor, AZ, US

Updated at: 0237 UTC 12 Dec 2017
Potential Impact None Slight Moderate High
Time11/14Z 11/15Z 11/16Z 11/17Z 11/18Z 11/19Z 11/20Z 11/21Z 11/22Z 11/23Z 12/00Z 12/01Z 12/02Z
VIS10 10 10 10 10 10 10 10 10 10 10 10 10
CIG220 250 250 220 250 250 250 240 210 240 240 250 --
CoverBKNBKNBKNBKNBKNBKNBKNBKNBKNBKNBKNBKNSCT
FltCatVFRVFRVFRVFRVFRVFRVFRVFRVFRVFRVFRVFRVFR
WX--------------------------
WDir00807080801300000300330
WSpd0 0 5 14 12 7 4 0 0 0 0 3 3
WGst-- -- -- -- -- -- -- -- -- -- -- -- --
Raw hourly METARs
KPHX 111351Z 00000KT 10SM BKN220 BKN250 14/M08 A3021 RMK AO2 SLP223 T01391083
KPHX 111451Z 00000KT 10SM SCT220 BKN250 13/M08 A3022 RMK AO2 SLP226 T01331078 53009
KPHX 111551Z 08005KT 10SM FEW200 SCT220 BKN250 16/M11 A3023 RMK AO2 SLP227 T01611111
KPHX 111651Z 07014KT 10SM FEW200 BKN220 BKN250 20/M13 A3024 RMK AO2 SLP231 T02001133
KPHX 111751Z 08012KT 10SM FEW200 FEW220 BKN250 20/M13 A3025 RMK AO2 SLP232 T02001133 10206 20133 53008
KPHX 111851Z 08007KT 10SM FEW200 SCT220 BKN250 21/M12 A3022 RMK AO2 SLP224 T02111122
KPHX 111951Z 13004KT 10SM FEW200 SCT220 BKN250 23/M12 A3019 RMK AO2 SLP211 T02281122
KPHX 112051Z 00000KT 10SM SCT200 BKN240 24/M14 A3017 RMK AO2 SLP204 T02391139 56027
KPHX 112151Z 00000KT 10SM SCT180 BKN210 BKN250 23/M14 A3016 RMK AO2 SLP202 T02331139
KPHX 112251Z 00000KT 10SM FEW160 SCT190 BKN240 24/M13 A3015 RMK AO2 SLP200 T02441133
KPHX 112351Z 00000KT 10SM FEW160 SCT190 BKN240 23/M09 A3016 RMK AO2 SLP201 T02331089 10244 20194 55003
KPHX 120051Z 30003KT 10SM FEW160 SCT190 BKN250 22/M11 A3017 RMK AO2 SLP205 T02171106
KPHX 120151Z 33003KT 10SM FEW190 SCT250 21/M08 A3018 RMK AO2 SLP210 T02111083